Regional Weather Roundup
Issued by NWS Kansas City/Pleasant Hill, MO

Home | Current Version | Previous Version | Graphics & Text | Print | Product List | Glossary Off
Versions: 1 2 3 4 5 6 7 8 9 10 11 12 13 14 15 16 17 18 19 20 21 22 23 24 25 26 27

000
ASUS43 KEAX 241310
RWREAX

WEATHER ROUNDUP FOR EASTERN KANSAS AND NORTHWEST MISSOURI
NATIONAL WEATHER SERVICE KANSAS CITY/PLEASANT HILL MO
700 AM CST FRI NOV 24 2017

KSZ040-057-103>105-MOZ028-029-037-043-241400-
...KANSAS CITY METROPOLITAN AREA...

CITY           SKY/WX    TMP DP  RH WIND       PRES   REMARKS
K.C. INTL      CLOUDY    51  34  52 S15       29.70F
K.C. DOWNTOWN  CLEAR     54  34  46 S14       29.71F
LEES SUMMIT      N/A     48  34  58 S14       29.75F
OLATHE - IXD   CLEAR     44  34  67 S12       29.75F
OLATHE - OJC   CLEAR     47  33  58 S12       29.75S
LAWRENCE       CLEAR     47  35  63 SE10      29.73F

$$

MOZ001>008-011>017-020>025-030>033-038>040-044>046-053-054-241400-
...NORTHERN AND CENTRAL MISSOURI...

CITY           SKY/WX    TMP DP  RH WIND       PRES   REMARKS
ST. JOSEPH     CLEAR     50  35  56 S15       29.66F
MOSBY          MOSUNNY   48  32  53 SE6       29.72F
WARRENSBURG    PTCLDY    45  32  61 S9        29.77F
WHITEMAN AFB   CLEAR     46  32  59 S14       29.74F
CLINTON        PTCLDY    46  32  57 MISG      29.81F
SEDALIA        CLEAR     50  34  54 S13       29.80F
WARSAW         NOT AVBL
CHILLICOTHE      N/A     48  34  58 S8        29.72F
KIRKSVILLE     CLEAR     49  34  56 SW15      29.73F

$$

MOZ041-047>049-056>058-063>065-088>090-097-241400-
...EASTERN AND SOUTHERN MISSOURI...

CITY           SKY/WX    TMP DP  RH WIND       PRES   REMARKS
ST. LOUIS INTL MOCLDY    40  32  73 SE3       29.86S
SPIRIT OF STL  CLOUDY    33  30  88 E3        29.84F
COLUMBIA       PTCLDY    43  33  68 S9        29.82F
JEFFERSON CITY PTCLDY    42  32  67 E5        29.84S
ROLLA          PTCLDY    46  30  53 SW15      29.86F
OSAGE BEACH    CLEAR     37  30  75 S5        29.86S WCI  33
SPRINGFIELD    CLEAR     42  32  67 S10       29.87S
BRANSON        PTCLDY    50  28  43 CALM      29.91S
JOPLIN         PTCLDY    50  32  50 S12       29.86S
WEST PLAINS    CLOUDY    42  30  62 SW3       29.92R

$$

IAZ060-094-KSZ022-034>040-054-083-096-NEZ052-066-093-241400-
...KANSAS...SOUTHEAST NEBRASKA AND IOWA...

CITY           SKY/WX    TMP DP  RH WIND       PRES   REMARKS
TOPEKA         CLEAR     51  36  56 SW7       29.71F
MANHATTAN      PTCLDY    53  37  54 SW13      29.68F
EMPORIA        CLOUDY    46  34  62 S10       29.74F
CHANUTE        CLOUDY    46  32  58 S12       29.82S
WICHITA        MOCLDY    43  37  79 S9        29.75F
OMAHA          CLEAR     44  37  76 SE10      29.54F
LINCOLN        CLEAR     48  39  71 VRB3      29.58F
FALLS CITY     CLEAR     50  36  58 S18       29.62F
LAMONI         CLEAR     46  35  65 S13       29.63F
DES MOINES     PTCLDY    51  36  56 S17       29.55F

$$





USA.gov is the U.S. government's official web portal to all federal, state and local government web resources and services.